This demonstration page uses our WeatherBlox Daily Observations layout. Learn more.

Left ArrowRight Arrow

Hourly Observations for May 27, 2015

Temp ( °F °C ) Dew Point ( °F °C ) Humidity (%) Winds ( mph kmh ) Pressure ( in mb ) Visibility ( mi km ) Precip ( " mm )
12:53 am 00:53 Cloudy 69 20.6 66 18.9 90 90 VRB 5 7 30.04 1017 10 16 0.00 0.00
1:51 am 01:51 Cloudy 70 21 66 19 88 88 VRB 3 6 30.06 1018 10 16 0.00 0.00
1:53 am 01:53 Cloudy 69 20.6 66 18.9 90 90 SSW 3 6 30.05 1018 10 16 0.00 0.00
2:46 am 02:46 Mostly Cloudy 69 20.6 66 18.9 90 90 SW 6 9 30.06 1018 10 16 0.00 0.00
2:53 am 02:53 Mostly Cloudy 69 20.6 66 18.9 90 90 SSW 5 7 30.04 1017 10 16 0.00 0.00
3:53 am 03:53 Clear 68 20 66 18.9 93 93 Calm 30.03 1017 9 14 0.00 0.00
4:53 am 04:53 Mostly Cloudy 69 20.6 66 18.9 90 90 SW 5 7 30.05 1018 9 14 0.00 0.00
5:02 am 05:02 Mostly Cloudy 68 20 66 18.9 93 93 S 3 6 30.06 1018 9 14 0.00 0.00
5:16 am 05:16 Partly Cloudy 68 20 65 18.3 90 90 SSW 5 7 30.06 1018 9 14 0.00 0.00
5:53 am 05:53 Clear 67 19.4 65 18.3 93 93 SSW 3 6 30.06 1018 8 13 0.00 0.00
6:53 am 06:53 Partly Cloudy with Mist and Fog 67 19.4 65 18.3 93 93 Calm 30.09 1019 6 10 0.00 0.00
7:53 am 07:53 Sunny 69 20.6 65 18.3 87 87 VRB 6 9 30.11 1020 10 16 0.00 0.00
8:53 am 08:53 Mostly Sunny 71 21.7 64 17.8 79 79 SW 8 13 30.10 1019 10 16 0.00 0.00
9:53 am 09:53 Sunny 74 23.3 65 18.3 74 74 VRB 5 7 30.11 1020 10 16 0.00 0.00
10:53 am 10:53 Partly Cloudy 77 25 64 17.8 64 64 SW 8 13 30.11 1020 10 16 0.00 0.00
11:53 am 11:53 Mostly Cloudy 78 25.6 64 17.8 62 62 SSW 12 19 30.11 1020 10 16 0.00 0.00
12:53 pm 12:53 Partly Cloudy 80 26.7 64 17.8 58 58 VRB 7 11 30.10 1019 10 16 0.00 0.00
1:53 pm 13:53 Mostly Sunny 81 27.2 64 17.8 57 57 SW 9 15 30.09 1019 10 16 0.00 0.00
2:53 pm 14:53 Mostly Sunny 82 27.8 64 17.8 55 55 SSW 9 15 30.08 1019 10 16 0.00 0.00
3:53 pm 15:53 Mostly Sunny 84 28.9 65 18.3 53 53 S 8 13 30.06 1018 10 16 0.00 0.00
4:53 pm 16:53 Mostly Sunny 83 28.3 63 17.2 51 51 SSW 10 17 30.04 1017 10 16 0.00 0.00
5:53 pm 17:53 Sunny 82 27.8 62 16.7 51 51 SW 8 13 30.06 1018 10 16 0.00 0.00
6:53 pm 18:53 Mostly Sunny 79 26.1 61 16.1 54 54 SW 10 17 30.07 1018 10 16 0.00 0.00
7:53 pm 19:53 Sunny 77 25 60 15.6 56 56 SSW 13 20 30.06 1018 10 16 0.00 0.00
8:53 pm 20:53 Mostly Sunny 74 23.3 59 15 60 60 SSW 10 17 30.09 1019 10 16 0.00 0.00
9:53 pm 21:53 Clear 71 21.7 60 15.6 68 68 SW 3 6 30.10 1019 10 16 0.00 0.00
10:53 pm 22:53 Clear 69 20.6 61 16.1 76 76 SSW 6 9 30.12 1020 10 16 0.00 0.00
11:53 pm 23:53 Mostly Cloudy 69 20.6 62 16.7 78 78 VRB 3 6 30.14 1021 10 16 0.00 0.00

Powered by AerisWeather